Tracking 19717 objects as of 24-Jun-2019
HD Live streaming from Space Station
objects crossing your sky now

METEOR 3M

Track METEOR 3M now!
10-day predictions
METEOR 3M is classified as:


NORAD ID: 27001
Int'l Code: 2001-056A
Perigee: 1,001.5 km
Apogee: 1,020.3 km
Inclination: 99.5 °
Period: 105.2 minutes
Semi major axis: 7381 km
RCS: 7.1203 m2 (large)
Launch date: December 10, 2001
Source: Commonwealth of Independent States (former USSR) (CIS)
Launch site: TYURATAM MISSILE AND SPACE COMPLEX (TTMTR)
aabbcc
Your satellite tracking list
Your tracking list is empty




NASA's NSSDC Master Catalog

Two Line Element Set (TLE):
1 27001U 01056A   19174.91350898 -.00000023 +00000-0 +25229-4 0  9997
2 27001 099.5189 311.3034 0012794 255.6151 213.8755 13.68832679875987
Source of the keplerian elements: AFSPC